Location: Cold Norton
(51.6667°N, 0.6667°E)
Time: 16:46:40
(UTC+00:00)

Cosmos 2297 Rocket - Pass Details

Date: 18 November 2025
Orbit: 837 x 844 km, 71.0° (Epoch: 10 December)

Event Time Altitude Azimuth Distance (km) Brightness Sun altitude
Rises 16:40:24 0° 303° (WNW) 3,405 5.8 -5.9°
Reaches altitude 10° 16:45:21 10° 341° (NNW) 2,473 4.6 -6.7°
Maximum altitude 16:46:36 11° 354° (N) 2,427 4.4 -6.8°
Drops below altitude 10° 16:47:50 10° 7° (N) 2,475 4.4 -7.0°
Enters shadow 16:51:15 - 36° (NE) 3,021 4.6 -7.5°
